Hourly Data Report for July 16, 2021

WINNIPEG THE FORKS
MANITOBA
Current Station Operator: ECCC - MSC

49°53'18.008" N
97°07'46.007" W
230.00 m
5023262
71579
XWN

Download Data

Hourly Data (July 2021)
Hourly Data Report for July 16, 2021
TIME
LST
Temp Definition
°C
Dew Point Definition
°C
Rel Hum Definition
%
Precip. Amount Definition
mm

Wind Dir Definition
10's deg

Wind Spd Definition
km/h
Visibility Definition
km
Stn Press Definition
kPa
Hmdx Definition


Wind Chill Definition


Weather Definition


00:00 22.8 14.1 58 0.0 20 6   98.38 26   LegendNANA
01:00 22.3 13.9 59 0.0 20 6   98.38 26   LegendNANA
02:00 22.0 13.4 58 0.0 20 7   98.38 25   LegendNANA
03:00 21.3 13.4 61 0.0 21 5   98.40     LegendNANA
04:00 20.8 13.4 63 0.0 20 5   98.42     LegendNANA
05:00 19.7 13.7 68 0.0 19 4   98.47     LegendNANA
06:00 20.0 13.9 68 0.0 19 4   98.47     LegendNANA
07:00 21.2 14.2 64 0.0 19 5   98.46 25   LegendNANA
08:00 22.9 14.8 60 0.0 20 8   98.52 27   LegendNANA
09:00 24.4 15.0 56 0.0 20 10   98.55 28   LegendNANA
10:00 26.8 15.6 50 0.0 19 5   98.53 31   LegendNANA
11:00 28.3 15.7 46 0.0 20 6   98.52 33   LegendNANA
12:00 30.1 12.8 35 0.0 20 10   98.50 33   LegendNANA
13:00 30.8 13.7 35 0.0 20 10   98.50 34   LegendNANA
14:00 31.4 11.8 30 0.0 21 10   98.50 34   LegendNANA
15:00 31.9 12.4 31 0.0 20 11   98.49 34   LegendNANA
16:00 31.7 10.6 27 0.0 20 14   98.49 33   LegendNANA
17:00 31.4 10.8 28 0.0 21 8   98.49 33   LegendNANA
18:00 30.7 11.6 31 0.0 20 8   98.50 33   LegendNANA
19:00 29.8 11.6 32 0.0 20 7   98.53 32   LegendNANA
20:00 28.6 12.0 36 0.0 19 5   98.56 31   LegendNANA
21:00 26.9 13.2 43 0.0 20 3   98.62 30   LegendNANA
22:00 26.3 13.4 45 0.0 20 5   98.68 29   LegendNANA
23:00 25.7 13.3 46 0.0 20 8   98.69 29   LegendNANA

Notes on Data Quality.

Legend

  • E = Estimated
  • M = Missing
  • NA = Not Available*
  • [empty] = Indicates an unobserved value
Date modified: